Year,Month,Day,Hour,Minute,Value (Times are PST for temperature in C)
2014,07,03,00,00,14.60
2014,07,03,00,01,14.60
2014,07,03,00,02,14.50
2014,07,03,00,03,14.50
2014,07,03,00,04,14.50
2014,07,03,00,05,14.50
2014,07,03,00,06,14.50
2014,07,03,00,07,14.50
2014,07,03,00,08,14.40
2014,07,03,00,09,14.40
2014,07,03,00,10,14.40
2014,07,03,00,11,14.40
2014,07,03,00,12,14.40
2014,07,03,00,13,14.40
2014,07,03,00,14,14.40
2014,07,03,00,15,14.30
2014,07,03,00,16,14.30
2014,07,03,00,17,14.30
2014,07,03,00,18,14.30
2014,07,03,00,19,14.30
2014,07,03,00,20,14.30
2014,07,03,00,21,14.30
2014,07,03,00,22,14.30
2014,07,03,00,23,14.30
2014,07,03,00,24,14.20
2014,07,03,00,25,14.20
2014,07,03,00,26,14.20
2014,07,03,00,27,14.20
2014,07,03,00,28,14.20
2014,07,03,00,29,14.20
2014,07,03,00,30,14.20
2014,07,03,00,31,14.20
2014,07,03,00,32,14.20
2014,07,03,00,33,14.20
2014,07,03,00,34,14.20
2014,07,03,00,35,14.20
2014,07,03,00,36,14.20
2014,07,03,00,37,14.20
2014,07,03,00,38,14.20
2014,07,03,00,39,14.20
2014,07,03,00,40,14.20
2014,07,03,00,41,14.20
2014,07,03,00,42,14.20
2014,07,03,00,43,14.20
2014,07,03,00,44,14.20
2014,07,03,00,45,14.20
2014,07,03,00,46,14.20
2014,07,03,00,47,14.20
2014,07,03,00,48,14.20
2014,07,03,00,49,14.20
2014,07,03,00,50,14.20
2014,07,03,00,51,14.20
2014,07,03,00,52,14.20
2014,07,03,00,53,14.20
2014,07,03,00,54,14.20
2014,07,03,00,55,14.10
2014,07,03,00,56,14.10
2014,07,03,00,57,14.10
2014,07,03,00,58,14.10
2014,07,03,00,59,14.10
2014,07,03,01,00,14.10
2014,07,03,01,01,14.10
2014,07,03,01,02,14.00
2014,07,03,01,03,14.00
2014,07,03,01,04,14.00
2014,07,03,01,05,14.00
2014,07,03,01,06,14.00
2014,07,03,01,07,14.00
2014,07,03,01,08,14.00
2014,07,03,01,09,14.00
2014,07,03,01,10,14.00
2014,07,03,01,11,14.00
2014,07,03,01,12,13.90
2014,07,03,01,13,13.90
2014,07,03,01,14,13.90
2014,07,03,01,15,13.90
2014,07,03,01,16,13.90
2014,07,03,01,17,13.90
2014,07,03,01,18,13.90
2014,07,03,01,19,13.90
2014,07,03,01,20,13.90
2014,07,03,01,21,13.90
2014,07,03,01,22,13.90
2014,07,03,01,23,13.90
2014,07,03,01,24,13.90
2014,07,03,01,25,13.90
2014,07,03,01,26,13.90
2014,07,03,01,27,13.90
2014,07,03,01,28,13.90
2014,07,03,01,29,13.90
2014,07,03,01,30,13.90
2014,07,03,01,31,13.90
2014,07,03,01,32,13.90
2014,07,03,01,33,13.90
2014,07,03,01,34,13.90
2014,07,03,01,35,13.90
2014,07,03,01,36,13.90
2014,07,03,01,37,13.90
2014,07,03,01,38,13.90
2014,07,03,01,39,13.80
2014,07,03,01,40,13.80
2014,07,03,01,41,13.80
2014,07,03,01,42,13.80
2014,07,03,01,43,13.80
2014,07,03,01,44,13.80
2014,07,03,01,45,13.80
2014,07,03,01,46,13.80
2014,07,03,01,47,13.80
2014,07,03,01,48,13.80
2014,07,03,01,49,13.80
2014,07,03,01,50,13.80
2014,07,03,01,51,13.80
2014,07,03,01,52,13.70
2014,07,03,01,53,13.70
2014,07,03,01,54,13.70
2014,07,03,01,55,13.70
2014,07,03,01,56,13.70
2014,07,03,01,57,13.70
2014,07,03,01,58,13.70
2014,07,03,01,59,13.70
2014,07,03,02,00,13.70
2014,07,03,02,01,13.70
2014,07,03,02,02,13.70
2014,07,03,02,03,13.70
2014,07,03,02,04,13.70
2014,07,03,02,05,13.70
2014,07,03,02,06,13.70
2014,07,03,02,07,13.70
2014,07,03,02,08,13.70
2014,07,03,02,09,13.70
2014,07,03,02,10,13.70
2014,07,03,02,11,13.70
2014,07,03,02,12,13.70
2014,07,03,02,13,13.60
2014,07,03,02,14,13.60
2014,07,03,02,15,13.60
2014,07,03,02,16,13.60
2014,07,03,02,17,13.60
2014,07,03,02,18,13.60
2014,07,03,02,19,13.60
2014,07,03,02,20,13.60
2014,07,03,02,21,13.60
2014,07,03,02,22,13.60
2014,07,03,02,23,13.60
2014,07,03,02,24,13.60
2014,07,03,02,25,13.60
2014,07,03,02,26,13.60
2014,07,03,02,27,13.60
2014,07,03,02,28,13.60
2014,07,03,02,29,13.60
2014,07,03,02,30,13.60
2014,07,03,02,31,13.60
2014,07,03,02,32,13.60
2014,07,03,02,33,13.60
2014,07,03,02,34,13.60
2014,07,03,02,35,13.60
2014,07,03,02,36,13.60
2014,07,03,02,37,13.60
2014,07,03,02,38,13.70
2014,07,03,02,39,13.60
2014,07,03,02,40,13.60
2014,07,03,02,41,13.60
2014,07,03,02,42,13.60
2014,07,03,02,43,13.60
2014,07,03,02,44,13.60
2014,07,03,02,45,13.60
2014,07,03,02,46,13.60
2014,07,03,02,47,13.60
2014,07,03,02,48,13.60
2014,07,03,02,49,13.60
2014,07,03,02,50,13.60
2014,07,03,02,51,13.60
2014,07,03,02,52,13.60
2014,07,03,02,53,13.60
2014,07,03,02,54,13.60
2014,07,03,02,55,13.60
2014,07,03,02,56,13.70
2014,07,03,02,57,13.70
2014,07,03,02,58,13.70
2014,07,03,02,59,13.70
2014,07,03,03,00,13.70
2014,07,03,03,01,13.70
2014,07,03,03,02,13.70
2014,07,03,03,03,13.70
2014,07,03,03,04,13.70
2014,07,03,03,05,13.70
2014,07,03,03,06,13.70
2014,07,03,03,07,13.70
2014,07,03,03,08,13.70
2014,07,03,03,09,13.70
2014,07,03,03,10,13.70
2014,07,03,03,11,13.70
2014,07,03,03,12,13.70
2014,07,03,03,13,13.70
2014,07,03,03,14,13.70
2014,07,03,03,15,13.70
2014,07,03,03,16,13.70
2014,07,03,03,17,13.70
2014,07,03,03,18,13.70
2014,07,03,03,19,13.70
2014,07,03,03,20,13.70
2014,07,03,03,21,13.70
2014,07,03,03,22,13.70
2014,07,03,03,23,13.70
2014,07,03,03,24,13.70
2014,07,03,03,25,13.70
2014,07,03,03,26,13.70
2014,07,03,03,27,13.70
2014,07,03,03,28,13.70
2014,07,03,03,29,13.70
2014,07,03,03,30,13.70
2014,07,03,03,31,13.70
2014,07,03,03,32,13.70
2014,07,03,03,33,13.70
2014,07,03,03,34,13.70
2014,07,03,03,35,13.70
2014,07,03,03,36,13.70
2014,07,03,03,37,13.70
2014,07,03,03,38,13.70
2014,07,03,03,39,13.70
2014,07,03,03,40,13.70
2014,07,03,03,41,13.70
2014,07,03,03,42,13.70
2014,07,03,03,43,13.70
2014,07,03,03,44,13.70
2014,07,03,03,45,13.70
2014,07,03,03,46,13.70
2014,07,03,03,47,13.70
2014,07,03,03,48,13.70
2014,07,03,03,49,13.70
2014,07,03,03,50,13.70
2014,07,03,03,51,13.70
2014,07,03,03,52,13.70
2014,07,03,03,53,13.70
2014,07,03,03,54,13.70
2014,07,03,03,55,13.70
2014,07,03,03,56,13.70
2014,07,03,03,57,13.70
2014,07,03,03,58,13.70
2014,07,03,03,59,13.70
2014,07,03,04,00,13.70
2014,07,03,04,01,13.70
2014,07,03,04,02,13.70
2014,07,03,04,03,13.70
2014,07,03,04,04,13.70
2014,07,03,04,05,13.70
2014,07,03,04,06,13.70
2014,07,03,04,07,13.70
2014,07,03,04,08,13.70
2014,07,03,04,09,13.70
2014,07,03,04,10,13.70
2014,07,03,04,11,13.70
2014,07,03,04,12,13.70
2014,07,03,04,13,13.60
2014,07,03,04,14,13.60
2014,07,03,04,15,13.60
2014,07,03,04,16,13.60
2014,07,03,04,17,13.60
2014,07,03,04,18,13.60
2014,07,03,04,19,13.60
2014,07,03,04,20,13.60
2014,07,03,04,21,13.60
2014,07,03,04,22,13.60
2014,07,03,04,23,13.60
2014,07,03,04,24,13.60
2014,07,03,04,25,13.60
2014,07,03,04,26,13.60
2014,07,03,04,27,13.60
2014,07,03,04,28,13.60
2014,07,03,04,29,13.60
2014,07,03,04,30,13.60
2014,07,03,04,31,13.60
2014,07,03,04,32,13.60
2014,07,03,04,33,13.60
2014,07,03,04,34,13.60
2014,07,03,04,35,13.60
2014,07,03,04,36,13.60
2014,07,03,04,37,13.60
2014,07,03,04,38,13.60
2014,07,03,04,39,13.60
2014,07,03,04,40,13.60
2014,07,03,04,41,13.50
2014,07,03,04,42,13.50
2014,07,03,04,43,13.50
2014,07,03,04,44,13.50
2014,07,03,04,45,13.50
2014,07,03,04,46,13.50
2014,07,03,04,47,13.50
2014,07,03,04,48,13.50
2014,07,03,04,49,13.50
2014,07,03,04,50,13.50
2014,07,03,04,51,13.50
2014,07,03,04,52,13.50
2014,07,03,04,53,13.50
2014,07,03,04,54,13.50
2014,07,03,04,55,13.40
2014,07,03,04,56,13.40
2014,07,03,04,57,13.40
2014,07,03,04,58,13.40
2014,07,03,04,59,13.40
2014,07,03,05,00,13.40
2014,07,03,05,01,13.40
2014,07,03,05,02,13.40
2014,07,03,05,03,13.40
2014,07,03,05,04,13.30
2014,07,03,05,05,13.30
2014,07,03,05,06,13.30
2014,07,03,05,07,13.30
2014,07,03,05,08,13.30
2014,07,03,05,09,13.30
2014,07,03,05,10,13.30
2014,07,03,05,11,13.30
2014,07,03,05,12,13.30
2014,07,03,05,13,13.30
2014,07,03,05,14,13.30
2014,07,03,05,15,13.30
2014,07,03,05,16,13.30
2014,07,03,05,17,13.30
2014,07,03,05,18,13.30
2014,07,03,05,19,13.30
2014,07,03,05,20,13.30
2014,07,03,05,21,13.30
2014,07,03,05,22,13.30
2014,07,03,05,23,13.30
2014,07,03,05,24,13.30
2014,07,03,05,25,13.30
2014,07,03,05,26,13.30
2014,07,03,05,27,13.30
2014,07,03,05,28,13.30
2014,07,03,05,29,13.30
2014,07,03,05,30,13.30
2014,07,03,05,31,13.30
2014,07,03,05,32,13.20
2014,07,03,05,33,13.30
2014,07,03,05,34,13.30
2014,07,03,05,35,13.30
2014,07,03,05,36,13.30
2014,07,03,05,37,13.30
2014,07,03,05,38,13.30
2014,07,03,05,39,13.30
2014,07,03,05,40,13.30
2014,07,03,05,41,13.30
2014,07,03,05,42,13.30
2014,07,03,05,43,13.30
2014,07,03,05,44,13.30
2014,07,03,05,45,13.30
2014,07,03,05,46,13.30
2014,07,03,05,47,13.30
2014,07,03,05,48,13.30
2014,07,03,05,49,13.30
2014,07,03,05,50,13.20
2014,07,03,05,51,13.20
2014,07,03,05,52,13.20
2014,07,03,05,53,13.20
2014,07,03,05,54,13.20
2014,07,03,05,55,13.20
2014,07,03,05,56,13.20
2014,07,03,05,57,13.20
2014,07,03,05,58,13.20
2014,07,03,05,59,13.20
2014,07,03,06,00,13.20
2014,07,03,06,01,13.20
2014,07,03,06,02,13.20
2014,07,03,06,03,13.20
2014,07,03,06,04,13.20
2014,07,03,06,05,13.30
2014,07,03,06,06,13.30
2014,07,03,06,07,13.30
2014,07,03,06,08,13.30
2014,07,03,06,09,13.30
2014,07,03,06,10,13.30
2014,07,03,06,11,13.30
2014,07,03,06,12,13.30
2014,07,03,06,13,13.30
2014,07,03,06,14,13.30
2014,07,03,06,15,13.30
2014,07,03,06,16,13.30
2014,07,03,06,17,13.30
2014,07,03,06,18,13.30
2014,07,03,06,19,13.30
2014,07,03,06,20,13.30
2014,07,03,06,21,13.30
2014,07,03,06,22,13.40
2014,07,03,06,23,13.40
2014,07,03,06,24,13.40
2014,07,03,06,25,13.40
2014,07,03,06,26,13.40
2014,07,03,06,27,13.40
2014,07,03,06,28,13.50
2014,07,03,06,29,13.50
2014,07,03,06,30,13.50
2014,07,03,06,31,13.50
2014,07,03,06,32,13.50
2014,07,03,06,33,13.60
2014,07,03,06,34,13.60
2014,07,03,06,35,13.60
2014,07,03,06,36,13.60
2014,07,03,06,37,13.60
2014,07,03,06,38,13.70
2014,07,03,06,39,13.70
2014,07,03,06,40,13.70
2014,07,03,06,41,13.70
2014,07,03,06,42,13.70
2014,07,03,06,43,13.70
2014,07,03,06,44,13.70
2014,07,03,06,45,13.80
2014,07,03,06,46,13.80
2014,07,03,06,47,13.80
2014,07,03,06,48,13.80
2014,07,03,06,49,13.90
2014,07,03,06,50,13.90
2014,07,03,06,51,13.90
2014,07,03,06,52,14.00
2014,07,03,06,53,14.00
2014,07,03,06,54,14.00
2014,07,03,06,55,14.00
2014,07,03,06,56,14.10
2014,07,03,06,57,14.10
2014,07,03,06,58,14.20
2014,07,03,06,59,14.20
2014,07,03,07,00,14.20
2014,07,03,07,01,14.20
2014,07,03,07,02,14.20
2014,07,03,07,03,14.20
2014,07,03,07,04,14.20
2014,07,03,07,05,14.30
2014,07,03,07,06,14.30
2014,07,03,07,07,14.30
2014,07,03,07,08,14.30
2014,07,03,07,09,14.30
2014,07,03,07,10,14.30
2014,07,03,07,11,14.30
2014,07,03,07,12,14.30
2014,07,03,07,13,14.30
2014,07,03,07,14,14.30
2014,07,03,07,15,14.30
2014,07,03,07,16,14.30
2014,07,03,07,17,14.30
2014,07,03,07,18,14.30
2014,07,03,07,19,14.30
2014,07,03,07,20,14.30
2014,07,03,07,21,14.30
2014,07,03,07,22,14.30
2014,07,03,07,23,14.40
2014,07,03,07,24,14.40
2014,07,03,07,25,14.40
2014,07,03,07,26,14.40
2014,07,03,07,27,14.40
2014,07,03,07,28,14.40
2014,07,03,07,29,14.50
2014,07,03,07,30,14.50
2014,07,03,07,31,14.50
2014,07,03,07,32,14.60
2014,07,03,07,33,14.60
2014,07,03,07,34,14.70
2014,07,03,07,35,14.70
2014,07,03,07,36,14.60
2014,07,03,07,37,14.60
2014,07,03,07,38,14.70
2014,07,03,07,39,14.70
2014,07,03,07,40,14.70
2014,07,03,07,41,14.70
2014,07,03,07,42,14.80
2014,07,03,07,43,14.80
2014,07,03,07,44,14.80
2014,07,03,07,45,14.80
2014,07,03,07,46,14.80
2014,07,03,07,47,14.80
2014,07,03,07,48,14.80
2014,07,03,07,49,14.90
2014,07,03,07,50,14.90
2014,07,03,07,51,15.00
2014,07,03,07,52,15.00
2014,07,03,07,53,15.00
2014,07,03,07,54,15.00
2014,07,03,07,55,15.00
2014,07,03,07,56,15.00
2014,07,03,07,57,15.10
2014,07,03,07,58,15.10
2014,07,03,07,59,15.20
2014,07,03,08,00,15.20
2014,07,03,08,01,15.30
2014,07,03,08,02,15.30
2014,07,03,08,03,15.30
2014,07,03,08,04,15.30
2014,07,03,08,05,15.30
2014,07,03,08,06,15.30
2014,07,03,08,07,15.30
2014,07,03,08,08,15.30
2014,07,03,08,09,15.40
2014,07,03,08,10,15.40
2014,07,03,08,11,15.40
2014,07,03,08,12,15.40
2014,07,03,08,13,15.40
2014,07,03,08,14,15.40
2014,07,03,08,15,15.40
2014,07,03,08,16,15.40
2014,07,03,08,17,15.50
2014,07,03,08,18,15.50
2014,07,03,08,19,15.60
2014,07,03,08,20,15.60
2014,07,03,08,21,15.70
2014,07,03,08,22,15.70
2014,07,03,08,23,15.80
2014,07,03,08,24,15.80
2014,07,03,08,25,15.80
2014,07,03,08,26,15.80
2014,07,03,08,27,15.80
2014,07,03,08,28,15.80
2014,07,03,08,29,15.90
2014,07,03,08,30,15.90
2014,07,03,08,31,16.00
2014,07,03,08,32,16.10
2014,07,03,08,33,16.10
2014,07,03,08,34,16.20
2014,07,03,08,35,16.20
2014,07,03,08,36,16.30
2014,07,03,08,37,16.40
2014,07,03,08,38,16.40
2014,07,03,08,39,16.40
2014,07,03,08,40,16.40
2014,07,03,08,41,16.40
2014,07,03,08,42,16.40
2014,07,03,08,43,16.40
2014,07,03,08,44,16.40
2014,07,03,08,45,16.40
2014,07,03,08,46,16.60
2014,07,03,08,47,16.60
2014,07,03,08,48,16.70
2014,07,03,08,49,16.70
2014,07,03,08,50,16.70
2014,07,03,08,51,16.70
2014,07,03,08,52,16.70
2014,07,03,08,53,16.70
2014,07,03,08,54,16.80
2014,07,03,08,55,16.90
2014,07,03,08,56,16.90
2014,07,03,08,57,16.90
2014,07,03,08,58,17.00
2014,07,03,08,59,17.00
2014,07,03,09,00,17.00
2014,07,03,09,01,17.00
2014,07,03,09,02,17.00
2014,07,03,09,03,17.00
2014,07,03,09,04,17.00
2014,07,03,09,05,17.10
2014,07,03,09,06,17.10
2014,07,03,09,07,17.10
2014,07,03,09,08,17.20
2014,07,03,09,09,17.20
2014,07,03,09,10,17.20
2014,07,03,09,11,17.30
2014,07,03,09,12,17.30
2014,07,03,09,13,17.40
2014,07,03,09,14,17.50
2014,07,03,09,15,17.50
2014,07,03,09,16,17.50
2014,07,03,09,17,17.40
2014,07,03,09,18,17.40
2014,07,03,09,19,17.30
2014,07,03,09,20,17.40
2014,07,03,09,21,17.50
2014,07,03,09,22,17.50
2014,07,03,09,23,17.60
2014,07,03,09,24,17.70
2014,07,03,09,25,17.70
2014,07,03,09,26,17.80
2014,07,03,09,27,17.90
2014,07,03,09,28,17.90
2014,07,03,09,29,17.90
2014,07,03,09,30,17.90
2014,07,03,09,31,17.90
2014,07,03,09,32,17.90
2014,07,03,09,33,17.90
2014,07,03,09,34,18.00
2014,07,03,09,35,18.10
2014,07,03,09,36,18.10
2014,07,03,09,37,18.20
2014,07,03,09,38,18.20
2014,07,03,09,39,18.30
2014,07,03,09,40,18.30
2014,07,03,09,41,18.30
2014,07,03,09,42,18.30
2014,07,03,09,43,18.20
2014,07,03,09,44,18.30
2014,07,03,09,45,18.20
2014,07,03,09,46,18.30
2014,07,03,09,47,18.30
2014,07,03,09,48,18.20
2014,07,03,09,49,18.20
2014,07,03,09,50,18.10
2014,07,03,09,51,18.10
2014,07,03,09,52,18.00
2014,07,03,09,53,18.10
2014,07,03,09,54,18.00
2014,07,03,09,55,17.90
2014,07,03,09,56,17.80
2014,07,03,09,57,17.70
2014,07,03,09,58,17.60
2014,07,03,09,59,17.60
2014,07,03,10,00,17.50
2014,07,03,10,01,17.50
2014,07,03,10,02,17.40
2014,07,03,10,03,17.50
2014,07,03,10,04,17.60
2014,07,03,10,05,17.70
2014,07,03,10,06,17.80
2014,07,03,10,07,17.90
2014,07,03,10,08,18.10
2014,07,03,10,09,18.20
2014,07,03,10,10,18.20
2014,07,03,10,11,18.20
2014,07,03,10,12,18.20
2014,07,03,10,13,18.20
2014,07,03,10,14,18.20
2014,07,03,10,15,18.20
2014,07,03,10,16,18.20
2014,07,03,10,17,18.20
2014,07,03,10,18,18.30
2014,07,03,10,19,18.30
2014,07,03,10,20,18.40
2014,07,03,10,21,18.50
2014,07,03,10,22,18.60
2014,07,03,10,23,18.70
2014,07,03,10,24,18.80
2014,07,03,10,25,18.80
2014,07,03,10,26,18.90
2014,07,03,10,27,18.90
2014,07,03,10,28,18.90
2014,07,03,10,29,18.70
2014,07,03,10,30,18.70
2014,07,03,10,31,18.70
2014,07,03,10,32,18.60
2014,07,03,10,33,18.40
2014,07,03,10,34,18.30
2014,07,03,10,35,18.20
2014,07,03,10,36,18.00
2014,07,03,10,37,17.90
2014,07,03,10,38,17.90
2014,07,03,10,39,17.90
2014,07,03,10,40,17.90
2014,07,03,10,41,17.90
2014,07,03,10,42,17.90
2014,07,03,10,43,17.90
2014,07,03,10,44,17.90
2014,07,03,10,45,17.90
2014,07,03,10,46,17.90
2014,07,03,10,47,17.90
2014,07,03,10,48,17.80
2014,07,03,10,49,17.70
2014,07,03,10,50,17.70
2014,07,03,10,51,17.80
2014,07,03,10,52,17.80
2014,07,03,10,53,17.90
2014,07,03,10,54,17.90
2014,07,03,10,55,18.00
2014,07,03,10,56,18.10
2014,07,03,10,57,18.20
2014,07,03,10,58,18.20
2014,07,03,10,59,18.20
2014,07,03,11,00,18.20
2014,07,03,11,01,18.20
2014,07,03,11,02,18.30
2014,07,03,11,03,18.30
2014,07,03,11,04,18.30
2014,07,03,11,05,18.40
2014,07,03,11,06,18.40
2014,07,03,11,07,18.40
2014,07,03,11,08,18.40
2014,07,03,11,09,18.40
2014,07,03,11,10,18.40
2014,07,03,11,11,18.40
2014,07,03,11,12,18.50
2014,07,03,11,13,18.60
2014,07,03,11,14,18.70
2014,07,03,11,15,18.80
2014,07,03,11,16,18.80
2014,07,03,11,17,18.90
2014,07,03,11,18,18.90
2014,07,03,11,19,19.00
2014,07,03,11,20,19.10
2014,07,03,11,21,19.20
2014,07,03,11,22,19.30
2014,07,03,11,23,19.30
2014,07,03,11,24,19.30
2014,07,03,11,25,19.40
2014,07,03,11,26,19.40
2014,07,03,11,27,19.30
2014,07,03,11,28,19.30
2014,07,03,11,29,19.40
2014,07,03,11,30,19.40
2014,07,03,11,31,19.40
2014,07,03,11,32,19.50
2014,07,03,11,33,19.60
2014,07,03,11,34,19.70
2014,07,03,11,35,19.70
2014,07,03,11,36,19.80
2014,07,03,11,37,19.80
2014,07,03,11,38,19.80
2014,07,03,11,39,19.80
2014,07,03,11,40,19.80
2014,07,03,11,41,19.80
2014,07,03,11,42,19.70
2014,07,03,11,43,19.70
2014,07,03,11,44,19.70
2014,07,03,11,45,19.60
2014,07,03,11,46,19.60
2014,07,03,11,47,19.50
2014,07,03,11,48,19.40
2014,07,03,11,49,19.40
2014,07,03,11,50,19.30
2014,07,03,11,51,19.30
2014,07,03,11,52,19.30
2014,07,03,11,53,19.20
2014,07,03,11,54,19.30
2014,07,03,11,55,19.30
2014,07,03,11,56,19.30
2014,07,03,11,57,19.40
2014,07,03,11,58,19.40
2014,07,03,11,59,19.40
2014,07,03,12,00,19.40
2014,07,03,12,01,19.30
2014,07,03,12,02,19.30
2014,07,03,12,03,19.30
2014,07,03,12,04,19.30
2014,07,03,12,05,19.30
2014,07,03,12,06,19.30
2014,07,03,12,07,19.30
2014,07,03,12,08,19.40
2014,07,03,12,09,19.50
2014,07,03,12,10,19.50
2014,07,03,12,11,19.60
2014,07,03,12,12,19.60
2014,07,03,12,13,19.60
2014,07,03,12,14,19.50
2014,07,03,12,15,19.50
2014,07,03,12,16,19.60
2014,07,03,12,17,19.60
2014,07,03,12,18,19.50
2014,07,03,12,19,19.50
2014,07,03,12,20,19.50
2014,07,03,12,21,19.50
2014,07,03,12,22,19.40
2014,07,03,12,23,19.30
2014,07,03,12,24,19.20
2014,07,03,12,25,19.20
2014,07,03,12,26,19.20
2014,07,03,12,27,19.10
2014,07,03,12,28,19.00
2014,07,03,12,29,18.90
2014,07,03,12,30,19.00
2014,07,03,12,31,19.10
2014,07,03,12,32,19.10
2014,07,03,12,33,19.10
2014,07,03,12,34,19.10
2014,07,03,12,35,19.10
2014,07,03,12,36,19.20
2014,07,03,12,37,19.20
2014,07,03,12,38,19.10
2014,07,03,12,39,19.10
2014,07,03,12,40,19.00
2014,07,03,12,41,18.90
2014,07,03,12,42,18.90
2014,07,03,12,43,18.90
2014,07,03,12,44,18.90
2014,07,03,12,45,18.90
2014,07,03,12,46,18.90
2014,07,03,12,47,18.90
2014,07,03,12,48,18.90
2014,07,03,12,49,18.90
2014,07,03,12,50,19.00
2014,07,03,12,51,19.10
2014,07,03,12,52,19.20
2014,07,03,12,53,19.30
2014,07,03,12,54,19.30
2014,07,03,12,55,19.30
2014,07,03,12,56,19.40
2014,07,03,12,57,19.30
2014,07,03,12,58,19.30
2014,07,03,12,59,19.30
2014,07,03,13,00,19.30
2014,07,03,13,01,19.30
2014,07,03,13,02,19.30
2014,07,03,13,03,19.30
2014,07,03,13,04,19.30
2014,07,03,13,05,19.30
2014,07,03,13,06,19.30
2014,07,03,13,07,19.40
2014,07,03,13,08,19.40
2014,07,03,13,09,19.50
2014,07,03,13,10,19.50
2014,07,03,13,11,19.60
2014,07,03,13,12,19.50
2014,07,03,13,13,19.50
2014,07,03,13,14,19.50
2014,07,03,13,15,19.40
2014,07,03,13,16,19.40
2014,07,03,13,17,19.40
2014,07,03,13,18,19.40
2014,07,03,13,19,19.30
2014,07,03,13,20,19.30
2014,07,03,13,21,19.30
2014,07,03,13,22,19.20
2014,07,03,13,23,19.10
2014,07,03,13,24,19.10
2014,07,03,13,25,19.10
2014,07,03,13,26,19.20
2014,07,03,13,27,19.30
2014,07,03,13,28,19.40
2014,07,03,13,29,19.50
2014,07,03,13,30,19.50
2014,07,03,13,31,19.60
2014,07,03,13,32,19.60
2014,07,03,13,33,19.70
2014,07,03,13,34,19.80
2014,07,03,13,35,19.80
2014,07,03,13,36,19.90
2014,07,03,13,37,19.90
2014,07,03,13,38,19.80
2014,07,03,13,39,19.80
2014,07,03,13,40,19.70
2014,07,03,13,41,19.70
2014,07,03,13,42,19.80
2014,07,03,13,43,19.70
2014,07,03,13,44,19.70
2014,07,03,13,45,19.60
2014,07,03,13,46,19.60
2014,07,03,13,47,19.50
2014,07,03,13,48,19.40
2014,07,03,13,49,19.30
2014,07,03,13,50,19.20
2014,07,03,13,51,19.20
2014,07,03,13,52,19.20
2014,07,03,13,53,19.10
2014,07,03,13,54,19.10
2014,07,03,13,55,19.10
2014,07,03,13,56,19.00
2014,07,03,13,57,18.90
2014,07,03,13,58,18.90
2014,07,03,13,59,18.80
2014,07,03,14,00,18.80
2014,07,03,14,01,18.80
2014,07,03,14,02,18.90
2014,07,03,14,03,18.90
2014,07,03,14,04,18.90
2014,07,03,14,05,19.00
2014,07,03,14,06,19.10
2014,07,03,14,07,19.10
2014,07,03,14,08,19.20
2014,07,03,14,09,19.20
2014,07,03,14,10,19.30
2014,07,03,14,11,19.30
2014,07,03,14,12,19.20
2014,07,03,14,13,19.10
2014,07,03,14,14,19.10
2014,07,03,14,15,19.10
2014,07,03,14,16,19.10
2014,07,03,14,17,19.00
2014,07,03,14,18,18.90
2014,07,03,14,19,18.90
2014,07,03,14,20,18.90
2014,07,03,14,21,18.90
2014,07,03,14,22,18.90
2014,07,03,14,23,18.90
2014,07,03,14,24,18.90
2014,07,03,14,25,18.90
2014,07,03,14,26,18.90
2014,07,03,14,27,18.90
2014,07,03,14,28,18.90
2014,07,03,14,29,18.90
2014,07,03,14,30,19.00
2014,07,03,14,31,19.10
2014,07,03,14,32,19.10
2014,07,03,14,33,19.20
2014,07,03,14,34,19.20
2014,07,03,14,35,19.20
2014,07,03,14,36,19.30
2014,07,03,14,37,19.30
2014,07,03,14,38,19.30
2014,07,03,14,39,19.30
2014,07,03,14,40,19.40
2014,07,03,14,41,19.50
2014,07,03,14,42,19.60
2014,07,03,14,43,19.60
2014,07,03,14,44,19.60
2014,07,03,14,45,19.60
2014,07,03,14,46,19.70
2014,07,03,14,47,19.80
2014,07,03,14,48,19.90
2014,07,03,14,49,20.00
2014,07,03,14,50,20.10
2014,07,03,14,51,20.10
2014,07,03,14,52,20.10
2014,07,03,14,53,20.20
2014,07,03,14,54,20.30
2014,07,03,14,55,20.40
2014,07,03,14,56,20.50
2014,07,03,14,57,20.50
2014,07,03,14,58,20.50
2014,07,03,14,59,20.60
2014,07,03,15,00,20.50
2014,07,03,15,01,20.50
2014,07,03,15,02,20.50
2014,07,03,15,03,20.50
2014,07,03,15,04,20.40
2014,07,03,15,05,20.30
2014,07,03,15,06,20.30
2014,07,03,15,07,20.30
2014,07,03,15,08,20.40
2014,07,03,15,09,20.50
2014,07,03,15,10,20.60
2014,07,03,15,11,20.70
2014,07,03,15,12,20.50
2014,07,03,15,13,20.40
2014,07,03,15,14,20.10
2014,07,03,15,15,19.90
2014,07,03,15,16,19.80
2014,07,03,15,17,19.80
2014,07,03,15,18,19.70
2014,07,03,15,19,19.50
2014,07,03,15,20,19.40
2014,07,03,15,21,19.40
2014,07,03,15,22,19.40
2014,07,03,15,23,19.30
2014,07,03,15,24,19.30
2014,07,03,15,25,19.30
2014,07,03,15,26,19.20
2014,07,03,15,27,19.20
2014,07,03,15,28,19.20
2014,07,03,15,29,19.20
2014,07,03,15,30,19.20
2014,07,03,15,31,19.20
2014,07,03,15,32,19.20
2014,07,03,15,33,19.30
2014,07,03,15,34,19.40
2014,07,03,15,35,19.50
2014,07,03,15,36,19.60
2014,07,03,15,37,19.60
2014,07,03,15,38,19.70
2014,07,03,15,39,19.70
2014,07,03,15,40,19.70
2014,07,03,15,41,19.70
2014,07,03,15,42,19.70
2014,07,03,15,43,19.60
2014,07,03,15,44,19.60
2014,07,03,15,45,19.60
2014,07,03,15,46,19.50
2014,07,03,15,47,19.50
2014,07,03,15,48,19.50
2014,07,03,15,49,19.50
2014,07,03,15,50,19.40
2014,07,03,15,51,19.40
2014,07,03,15,52,19.40
2014,07,03,15,53,19.40
2014,07,03,15,54,19.50
2014,07,03,15,55,19.50
2014,07,03,15,56,19.40
2014,07,03,15,57,19.30
2014,07,03,15,58,19.30
2014,07,03,15,59,19.40
2014,07,03,16,00,19.50
2014,07,03,16,01,19.60
2014,07,03,16,02,19.90
2014,07,03,16,03,20.10
2014,07,03,16,04,20.20
2014,07,03,16,05,20.30
2014,07,03,16,06,20.40
2014,07,03,16,07,20.50
2014,07,03,16,08,20.50
2014,07,03,16,09,20.60
2014,07,03,16,10,20.70
2014,07,03,16,11,20.70
2014,07,03,16,12,20.70
2014,07,03,16,13,20.80
2014,07,03,16,14,20.80
2014,07,03,16,15,20.80
2014,07,03,16,16,20.80
2014,07,03,16,17,20.90
2014,07,03,16,18,21.00
2014,07,03,16,19,21.00
2014,07,03,16,20,21.10
2014,07,03,16,21,21.00
2014,07,03,16,22,21.10
2014,07,03,16,23,21.10
2014,07,03,16,24,21.00
2014,07,03,16,25,21.00
2014,07,03,16,26,21.00
2014,07,03,16,27,20.90
2014,07,03,16,28,20.90
2014,07,03,16,29,20.80
2014,07,03,16,30,20.80
2014,07,03,16,31,20.80
2014,07,03,16,32,20.90
2014,07,03,16,33,21.00
2014,07,03,16,34,21.10
2014,07,03,16,35,21.20
2014,07,03,16,36,21.20
2014,07,03,16,37,21.30
2014,07,03,16,38,21.30
2014,07,03,16,39,21.30
2014,07,03,16,40,21.30
2014,07,03,16,41,21.20
2014,07,03,16,42,21.20
2014,07,03,16,43,21.20
2014,07,03,16,44,21.20
2014,07,03,16,45,21.20
2014,07,03,16,46,21.20
2014,07,03,16,47,21.20
2014,07,03,16,48,21.20
2014,07,03,16,49,21.10
2014,07,03,16,50,21.00
2014,07,03,16,51,20.90
2014,07,03,16,52,20.70
2014,07,03,16,53,20.50
2014,07,03,16,54,20.50
2014,07,03,16,55,20.50
2014,07,03,16,56,20.50
2014,07,03,16,57,20.40
2014,07,03,16,58,20.40
2014,07,03,16,59,20.40
2014,07,03,17,00,20.30
2014,07,03,17,01,20.30
2014,07,03,17,02,20.30
2014,07,03,17,03,20.30
2014,07,03,17,04,20.20
2014,07,03,17,05,20.20
2014,07,03,17,06,20.10
2014,07,03,17,07,20.10
2014,07,03,17,08,20.10
2014,07,03,17,09,20.10
2014,07,03,17,10,20.20
2014,07,03,17,11,20.20
2014,07,03,17,12,20.20
2014,07,03,17,13,20.20
2014,07,03,17,14,20.20
2014,07,03,17,15,20.30
2014,07,03,17,16,20.40
2014,07,03,17,17,20.50
2014,07,03,17,18,20.50
2014,07,03,17,19,20.60